Tokyo, Japan

8:24 PM JST on November 23, 2017 (GMT +0900)
Tokyo (Haneda) International

Weather History for RJTT - November, 2017

Change the Weather History Date:

Tuesday, November 14, 2017

  Actual Average Record
Temperature  
Mean Temperature 56 °F -  
Max Temperature 59 °F 55 °F 71 °F (2006)
Min Temperature 53 °F 45 °F 46 °F (1996)
Degree Days  
Heating Degree Days 9    
Growing Degree Days 6 (Base 50)    
Moisture  
Dew Point 51 °F    
Average Humidity 84    
Maximum Humidity 100    
Minimum Humidity 72    
Precipitation  
Precipitation 0.00 in - - ()
Sea Level Pressure  
Sea Level Pressure 29.91 in    
Wind  
Wind Speed 5 mph ()    
Max Wind Speed 9 mph    
Max Gust Speed -    
Visibility 5.6 miles    
Events Rain    
Averages and records for this station are not official NWS values.
T = Trace of Precipitation, MM = Missing Value Source: Averaged Metar Reports

Daily Weather History Graph

Daily Weather History Graph

Search for Another Location

Airport or City:

Trip Planner

Search our weather history database for the weather conditions in past years. The results will help you decide how hot, cold, wet, or windy it might be!

Date:

Astronomy

Nov. 14, 2017 Rise Set
Actual Time 6:15 AM JST 4:35 PM JST
Civil Twilight 5:48 AM JST 5:02 PM JST
Nautical Twilight 5:17 AM JST 5:32 PM JST
Astronomical Twilight 4:47 AM JST 6:02 PM JST
Moon 1:48 AM JST (11/14) 2:29 PM JST (11/14)
Length of Visible Light 11h 14m
Length of Day
10h 19m
Waning Crescent, 18% of the Moon is Illuminated
Nov 14
Waning Crescent
Nov 18
New
Nov 27
First Quarter
Dec 4
Full
Dec 10
Last Quarter

Hourly Weather History & Observations

Time (JST) Temp. Dew Point Humidity Pressure Visibility Wind Dir Wind Speed Gust Speed Precip Events Conditions
12:00 AM 55.4 °F 53.6 °F 94% 30.04 in 6.2 mi Variable 2.3 mph - N/A   Mostly Cloudy
12:30 AM 55.4 °F 53.6 °F 94% 30.01 in 5.6 mi Variable 1.2 mph - N/A   Mostly Cloudy
1:00 AM 55.4 °F 53.6 °F 94% 30.01 in 4.3 mi Variable 2.3 mph - N/A Rain Light Rain Showers
1:30 AM 57.2 °F 55.4 °F 94% 30.01 in 4.3 mi Variable 2.3 mph - N/A Rain Light Rain Showers
1:37 AM 57.2 °F 55.4 °F 94% 30.01 in 3.7 mi Variable 2.3 mph - N/A Rain Light Rain Showers
2:00 AM 57.2 °F 55.4 °F 94% 30.01 in 2.5 mi East 8.1 mph - N/A Rain Light Rain Showers
2:30 AM 55.4 °F 55.4 °F 100% 30.01 in 2.5 mi North 8.1 mph - N/A Rain Light Rain Showers
3:00 AM 55.4 °F 55.4 °F 100% 29.98 in 3.7 mi NNE 9.2 mph - N/A Rain Light Rain Showers
3:30 AM 55.4 °F 53.6 °F 94% 29.98 in 4.3 mi NNE 9.2 mph - N/A Rain Light Rain Showers
4:00 AM 55.4 °F 51.8 °F 88% 29.98 in 5.6 mi NNW 6.9 mph - N/A Rain Light Rain Showers
4:17 AM 55.4 °F 50.0 °F 82% 29.98 in 4.3 mi NNW 6.9 mph - N/A Rain Light Rain Showers
4:30 AM 55.4 °F 50.0 °F 82% 29.98 in 4.3 mi NNW 9.2 mph - N/A Rain Light Rain Showers
5:00 AM 55.4 °F 48.2 °F 77% 29.98 in 5.0 mi North 4.6 mph - N/A Rain Light Rain Showers
5:30 AM 55.4 °F 48.2 °F 77% 29.98 in 6.2 mi NNE 6.9 mph - N/A   Mostly Cloudy
6:00 AM 53.6 °F 48.2 °F 82% 29.95 in 6.2 mi NNE 8.1 mph - N/A   Mostly Cloudy
6:14 AM 55.4 °F 48.2 °F 77% 29.95 in 6.2 mi North 9.2 mph - N/A   Mostly Cloudy
6:30 AM 55.4 °F 48.2 °F 77% 29.95 in 6.2 mi NNW 9.2 mph - N/A   Mostly Cloudy
7:00 AM 55.4 °F 48.2 °F 77% 29.95 in 6.2 mi NW 8.1 mph - N/A   Mostly Cloudy
7:30 AM 53.6 °F 48.2 °F 82% 29.98 in 6.2 mi NW 9.2 mph - N/A   Mostly Cloudy
8:00 AM 55.4 °F 46.4 °F 72% 29.95 in 6.2 mi NNW 6.9 mph - N/A   Mostly Cloudy
8:30 AM 55.4 °F 48.2 °F 77% 29.95 in 6.2 mi NNW 8.1 mph - N/A   Mostly Cloudy
9:00 AM 55.4 °F 48.2 °F 77% 29.95 in 6.2 mi West 9.2 mph - N/A   Mostly Cloudy
9:30 AM 55.4 °F 46.4 °F 72% 29.92 in 6.2 mi NW 6.9 mph - N/A   Mostly Cloudy
10:00 AM 57.2 °F 48.2 °F 72% 29.92 in 6.2 mi NNW 4.6 mph - N/A   Mostly Cloudy
10:30 AM 57.2 °F 48.2 °F 72% 29.92 in 6.2 mi North 4.6 mph - N/A   Mostly Cloudy
11:00 AM 57.2 °F 50.0 °F 77% 29.86 in 6.2 mi Variable 2.3 mph - N/A   Mostly Cloudy
11:13 AM 57.2 °F 48.2 °F 72% 29.86 in 6.2 mi Variable 1.2 mph - N/A   Mostly Cloudy
11:30 AM 59.0 °F 50.0 °F 72% 29.86 in 6.2 mi WNW 3.5 mph - N/A   Mostly Cloudy
12:00 PM 59.0 °F 50.0 °F 72% 29.83 in 5.6 mi WNW 4.6 mph - N/A   Mostly Cloudy
12:30 PM 59.0 °F 51.8 °F 77% 29.83 in 5.0 mi WNW 3.5 mph - N/A Rain Light Rain
1:00 PM 59.0 °F 51.8 °F 77% 29.83 in 5.0 mi WNW 5.8 mph - N/A Rain Light Rain
1:30 PM 59.0 °F 51.8 °F 77% 29.83 in 5.6 mi Variable 2.3 mph - N/A Rain Light Rain
2:00 PM 59.0 °F 51.8 °F 77% 29.83 in 5.0 mi Variable 2.3 mph - N/A Rain Light Rain
2:30 PM 59.0 °F 53.6 °F 82% 29.83 in 5.0 mi NNW 3.5 mph - N/A Rain Light Rain
3:00 PM 59.0 °F 53.6 °F 82% 29.83 in 4.3 mi Variable 2.3 mph - N/A Rain Light Rain
3:30 PM 59.0 °F 53.6 °F 82% 29.86 in 6.2 mi West 4.6 mph - N/A Rain Light Rain
4:00 PM 57.2 °F 53.6 °F 88% 29.86 in 5.6 mi West 3.5 mph - N/A Rain Rain
4:13 PM 57.2 °F 53.6 °F 88% 29.86 in 6.2 mi Variable 2.3 mph - N/A Rain Light Rain
4:30 PM 57.2 °F 53.6 °F 88% 29.86 in 6.2 mi NNW 3.5 mph - N/A Rain Light Rain
5:00 PM 57.2 °F 51.8 °F 82% 29.86 in 6.2 mi NNW 5.8 mph - N/A Rain Light Rain
5:30 PM 55.4 °F 51.8 °F 88% 29.86 in 6.2 mi West 3.5 mph - N/A Rain Light Rain
6:00 PM 57.2 °F 50.0 °F 77% 29.86 in 6.2 mi Variable 2.3 mph - N/A   Mostly Cloudy
6:30 PM 55.4 °F 51.8 °F 88% 29.86 in 6.2 mi West 9.2 mph - N/A Rain Light Rain
7:00 PM 55.4 °F 51.8 °F 88% 29.83 in 6.2 mi SW 5.8 mph - N/A Rain Light Rain
7:30 PM 55.4 °F 51.8 °F 88% 29.86 in 6.2 mi Variable 2.3 mph - N/A Rain Light Rain
8:00 PM 57.2 °F 53.6 °F 88% 29.83 in 6.2 mi East 3.5 mph - N/A   Mostly Cloudy
8:30 PM 57.2 °F 53.6 °F 88% 29.86 in 6.2 mi NW 6.9 mph - N/A Rain Light Rain
9:00 PM 57.2 °F 53.6 °F 88% 29.86 in 6.2 mi West 5.8 mph - N/A   Mostly Cloudy
9:30 PM 55.4 °F 53.6 °F 94% 29.86 in 6.2 mi West 3.5 mph - N/A   Mostly Cloudy
10:00 PM 55.4 °F 53.6 °F 94% 29.86 in 6.2 mi WSW 4.6 mph - N/A   Mostly Cloudy
10:30 PM 55.4 °F 51.8 °F 88% 29.86 in 6.2 mi WNW 5.8 mph - N/A   Scattered Clouds
11:00 PM 53.6 °F 51.8 °F 94% 29.86 in 6.2 mi WNW 5.8 mph - N/A   Partly Cloudy
11:30 PM 55.4 °F 51.8 °F 88% 29.86 in 6.2 mi NW 3.5 mph - N/A   Partly Cloudy